Year,Month,Day,Hour,Minute,Value (Times are PST for temperature in C)
2009,07,20,00,00,17.40
2009,07,20,00,01,17.40
2009,07,20,00,02,17.40
2009,07,20,00,03,17.40
2009,07,20,00,04,17.40
2009,07,20,00,05,17.30
2009,07,20,00,06,17.30
2009,07,20,00,07,17.30
2009,07,20,00,08,17.30
2009,07,20,00,09,17.20
2009,07,20,00,10,17.20
2009,07,20,00,11,17.20
2009,07,20,00,12,17.20
2009,07,20,00,13,17.10
2009,07,20,00,14,17.10
2009,07,20,00,15,17.10
2009,07,20,00,16,17.10
2009,07,20,00,17,17.10
2009,07,20,00,18,17.10
2009,07,20,00,19,17.00
2009,07,20,00,20,17.00
2009,07,20,00,21,17.00
2009,07,20,00,22,17.00
2009,07,20,00,23,16.90
2009,07,20,00,24,16.90
2009,07,20,00,25,16.90
2009,07,20,00,26,16.90
2009,07,20,00,27,16.90
2009,07,20,00,28,16.90
2009,07,20,00,29,16.80
2009,07,20,00,30,16.80
2009,07,20,00,31,16.80
2009,07,20,00,32,16.80
2009,07,20,00,33,16.70
2009,07,20,00,34,16.70
2009,07,20,00,35,16.70
2009,07,20,00,36,16.70
2009,07,20,00,37,16.70
2009,07,20,00,38,16.60
2009,07,20,00,39,16.60
2009,07,20,00,40,16.60
2009,07,20,00,41,16.60
2009,07,20,00,42,16.60
2009,07,20,00,43,16.50
2009,07,20,00,44,16.50
2009,07,20,00,45,16.40
2009,07,20,00,46,16.40
2009,07,20,00,47,16.40
2009,07,20,00,48,16.40
2009,07,20,00,49,16.40
2009,07,20,00,50,16.40
2009,07,20,00,51,16.40
2009,07,20,00,52,16.40
2009,07,20,00,53,16.30
2009,07,20,00,54,16.30
2009,07,20,00,55,16.30
2009,07,20,00,56,16.30
2009,07,20,00,57,16.30
2009,07,20,00,58,16.30
2009,07,20,00,59,16.30
2009,07,20,01,00,16.20
2009,07,20,01,01,16.20
2009,07,20,01,02,16.20
2009,07,20,01,03,16.20
2009,07,20,01,04,16.20
2009,07,20,01,05,16.20
2009,07,20,01,06,16.10
2009,07,20,01,07,16.10
2009,07,20,01,08,16.10
2009,07,20,01,09,16.10
2009,07,20,01,10,16.00
2009,07,20,01,11,15.90
2009,07,20,01,12,15.90
2009,07,20,01,13,15.90
2009,07,20,01,14,15.80
2009,07,20,01,15,15.80
2009,07,20,01,16,15.80
2009,07,20,01,17,15.70
2009,07,20,01,18,15.70
2009,07,20,01,19,15.70
2009,07,20,01,20,15.70
2009,07,20,01,21,15.70
2009,07,20,01,22,15.60
2009,07,20,01,23,15.60
2009,07,20,01,24,15.60
2009,07,20,01,25,15.60
2009,07,20,01,26,15.60
2009,07,20,01,27,15.60
2009,07,20,01,28,15.60
2009,07,20,01,29,15.60
2009,07,20,01,30,15.50
2009,07,20,01,31,15.50
2009,07,20,01,32,15.50
2009,07,20,01,33,15.50
2009,07,20,01,34,15.50
2009,07,20,01,35,15.50
2009,07,20,01,36,15.50
2009,07,20,01,37,15.50
2009,07,20,01,38,15.50
2009,07,20,01,39,15.50
2009,07,20,01,40,15.50
2009,07,20,01,41,15.50
2009,07,20,01,42,15.50
2009,07,20,01,43,15.50
2009,07,20,01,44,15.50
2009,07,20,01,45,15.50
2009,07,20,01,46,15.50
2009,07,20,01,47,15.50
2009,07,20,01,48,15.40
2009,07,20,01,49,15.40
2009,07,20,01,50,15.40
2009,07,20,01,51,15.40
2009,07,20,01,52,15.30
2009,07,20,01,53,15.30
2009,07,20,01,54,15.30
2009,07,20,01,55,15.20
2009,07,20,01,56,15.20
2009,07,20,01,57,15.20
2009,07,20,01,58,15.20
2009,07,20,01,59,15.10
2009,07,20,02,00,15.10
2009,07,20,02,01,15.00
2009,07,20,02,02,15.00
2009,07,20,02,03,15.00
2009,07,20,02,04,15.00
2009,07,20,02,05,15.00
2009,07,20,02,06,15.00
2009,07,20,02,07,15.00
2009,07,20,02,08,15.00
2009,07,20,02,09,15.00
2009,07,20,02,10,15.00
2009,07,20,02,11,14.90
2009,07,20,02,12,14.90
2009,07,20,02,13,14.90
2009,07,20,02,14,14.90
2009,07,20,02,15,14.80
2009,07,20,02,16,14.80
2009,07,20,02,17,14.80
2009,07,20,02,18,14.80
2009,07,20,02,19,14.80
2009,07,20,02,20,14.70
2009,07,20,02,21,14.70
2009,07,20,02,22,14.70
2009,07,20,02,23,14.70
2009,07,20,02,24,14.60
2009,07,20,02,25,14.60
2009,07,20,02,26,14.60
2009,07,20,02,27,14.60
2009,07,20,02,28,14.60
2009,07,20,02,29,14.60
2009,07,20,02,30,14.50
2009,07,20,02,31,14.50
2009,07,20,02,32,14.50
2009,07,20,02,33,14.50
2009,07,20,02,34,14.50
2009,07,20,02,35,14.50
2009,07,20,02,36,14.50
2009,07,20,02,37,14.50
2009,07,20,02,38,14.50
2009,07,20,02,39,14.50
2009,07,20,02,40,14.50
2009,07,20,02,41,14.40
2009,07,20,02,42,14.40
2009,07,20,02,43,14.40
2009,07,20,02,44,14.40
2009,07,20,02,45,14.40
2009,07,20,02,46,14.40
2009,07,20,02,47,14.30
2009,07,20,02,48,14.30
2009,07,20,02,49,14.30
2009,07,20,02,50,14.30
2009,07,20,02,51,14.30
2009,07,20,02,52,14.30
2009,07,20,02,53,14.20
2009,07,20,02,54,14.20
2009,07,20,02,55,14.20
2009,07,20,02,56,14.20
2009,07,20,02,57,14.20
2009,07,20,02,58,14.20
2009,07,20,02,59,14.10
2009,07,20,03,00,14.10
2009,07,20,03,01,14.10
2009,07,20,03,02,14.10
2009,07,20,03,03,14.10
2009,07,20,03,04,14.10
2009,07,20,03,05,14.00
2009,07,20,03,06,14.00
2009,07,20,03,07,13.90
2009,07,20,03,08,13.90
2009,07,20,03,09,13.90
2009,07,20,03,10,13.90
2009,07,20,03,11,13.90
2009,07,20,03,12,13.90
2009,07,20,03,13,13.90
2009,07,20,03,14,13.80
2009,07,20,03,15,13.80
2009,07,20,03,16,13.80
2009,07,20,03,17,13.80
2009,07,20,03,18,13.80
2009,07,20,03,19,13.80
2009,07,20,03,20,13.80
2009,07,20,03,21,13.80
2009,07,20,03,22,13.80
2009,07,20,03,23,13.80
2009,07,20,03,24,13.70
2009,07,20,03,25,13.70
2009,07,20,03,26,13.70
2009,07,20,03,27,13.70
2009,07,20,03,28,13.70
2009,07,20,03,29,13.70
2009,07,20,03,30,13.70
2009,07,20,03,31,13.70
2009,07,20,03,32,13.70
2009,07,20,03,33,13.60
2009,07,20,03,34,13.60
2009,07,20,03,35,13.60
2009,07,20,03,36,13.60
2009,07,20,03,37,13.60
2009,07,20,03,38,13.60
2009,07,20,03,39,13.60
2009,07,20,03,40,13.60
2009,07,20,03,41,13.60
2009,07,20,03,42,13.50
2009,07,20,03,43,13.50
2009,07,20,03,44,13.50
2009,07,20,03,45,13.50
2009,07,20,03,46,13.50
2009,07,20,03,47,13.40
2009,07,20,03,48,13.40
2009,07,20,03,49,13.40
2009,07,20,03,50,13.40
2009,07,20,03,51,13.40
2009,07,20,03,52,13.40
2009,07,20,03,53,13.40
2009,07,20,03,54,13.40
2009,07,20,03,55,13.30
2009,07,20,03,56,13.30
2009,07,20,03,57,13.30
2009,07,20,03,58,13.30
2009,07,20,03,59,13.30
2009,07,20,04,00,13.30
2009,07,20,04,01,13.30
2009,07,20,04,02,13.20
2009,07,20,04,03,13.30
2009,07,20,04,04,13.20
2009,07,20,04,05,13.20
2009,07,20,04,06,13.20
2009,07,20,04,07,13.20
2009,07,20,04,08,13.20
2009,07,20,04,09,13.20
2009,07,20,04,10,13.20
2009,07,20,04,11,13.10
2009,07,20,04,12,13.10
2009,07,20,04,13,13.10
2009,07,20,04,14,13.10
2009,07,20,04,15,13.10
2009,07,20,04,16,13.00
2009,07,20,04,17,13.00
2009,07,20,04,18,12.90
2009,07,20,04,19,12.90
2009,07,20,04,20,12.90
2009,07,20,04,21,12.90
2009,07,20,04,22,12.90
2009,07,20,04,23,12.90
2009,07,20,04,24,12.90
2009,07,20,04,25,12.80
2009,07,20,04,26,12.80
2009,07,20,04,27,12.90
2009,07,20,04,28,12.80
2009,07,20,04,29,12.90
2009,07,20,04,30,12.80
2009,07,20,04,31,12.80
2009,07,20,04,32,12.80
2009,07,20,04,33,12.80
2009,07,20,04,34,12.80
2009,07,20,04,35,12.80
2009,07,20,04,36,12.80
2009,07,20,04,37,12.80
2009,07,20,04,38,12.80
2009,07,20,04,39,12.80
2009,07,20,04,40,12.80
2009,07,20,04,41,12.80
2009,07,20,04,42,12.80
2009,07,20,04,43,12.80
2009,07,20,04,44,12.80
2009,07,20,04,45,12.70
2009,07,20,04,46,12.70
2009,07,20,04,47,12.70
2009,07,20,04,48,12.70
2009,07,20,04,49,12.70
2009,07,20,04,50,12.70
2009,07,20,04,51,12.70
2009,07,20,04,52,12.70
2009,07,20,04,53,12.70
2009,07,20,04,54,12.70
2009,07,20,04,55,12.70
2009,07,20,04,56,12.70
2009,07,20,04,57,12.70
2009,07,20,04,58,12.70
2009,07,20,04,59,12.70
2009,07,20,05,00,12.70
2009,07,20,05,01,12.70
2009,07,20,05,02,12.70
2009,07,20,05,03,12.70
2009,07,20,05,04,12.70
2009,07,20,05,05,12.70
2009,07,20,05,06,12.70
2009,07,20,05,07,12.70
2009,07,20,05,08,12.70
2009,07,20,05,09,12.70
2009,07,20,05,10,12.70
2009,07,20,05,11,12.70
2009,07,20,05,12,12.70
2009,07,20,05,13,12.70
2009,07,20,05,14,12.60
2009,07,20,05,15,12.60
2009,07,20,05,16,12.60
2009,07,20,05,17,12.60
2009,07,20,05,18,12.60
2009,07,20,05,19,12.60
2009,07,20,05,20,12.60
2009,07,20,05,21,12.50
2009,07,20,05,22,12.50
2009,07,20,05,23,12.50
2009,07,20,05,24,12.50
2009,07,20,05,25,12.50
2009,07,20,05,30,12.40
2009,07,20,05,33,12.40
2009,07,20,05,34,12.40
2009,07,20,05,35,12.40
2009,07,20,05,36,12.40
2009,07,20,05,37,12.40
2009,07,20,05,38,12.40
2009,07,20,05,39,12.40
2009,07,20,05,40,12.40
2009,07,20,05,41,12.40
2009,07,20,05,42,12.40
2009,07,20,05,43,12.40
2009,07,20,05,44,12.40
2009,07,20,05,45,12.40
2009,07,20,05,46,12.40
2009,07,20,05,47,12.40
2009,07,20,05,48,12.30
2009,07,20,05,49,12.30
2009,07,20,05,50,12.30
2009,07,20,05,51,12.30
2009,07,20,05,52,12.30
2009,07,20,05,53,12.30
2009,07,20,05,54,12.30
2009,07,20,05,55,12.30
2009,07,20,05,56,12.20
2009,07,20,05,57,12.20
2009,07,20,05,58,12.20
2009,07,20,05,59,12.20
2009,07,20,06,00,12.20
2009,07,20,06,01,12.10
2009,07,20,06,02,12.10
2009,07,20,06,03,12.10
2009,07,20,06,04,12.10
2009,07,20,06,05,12.10
2009,07,20,06,06,12.00
2009,07,20,06,07,12.00
2009,07,20,06,08,12.00
2009,07,20,06,09,12.00
2009,07,20,06,10,12.00
2009,07,20,06,11,12.00
2009,07,20,06,12,12.00
2009,07,20,06,13,12.00
2009,07,20,06,14,12.00
2009,07,20,06,15,12.00
2009,07,20,06,16,12.10
2009,07,20,06,17,12.10
2009,07,20,06,18,12.10
2009,07,20,06,19,12.10
2009,07,20,06,20,12.10
2009,07,20,06,21,12.10
2009,07,20,06,22,12.10
2009,07,20,06,23,12.20
2009,07,20,06,24,12.20
2009,07,20,06,25,12.20
2009,07,20,06,26,12.30
2009,07,20,06,27,12.30
2009,07,20,06,28,12.40
2009,07,20,06,29,12.40
2009,07,20,06,30,12.40
2009,07,20,06,31,12.50
2009,07,20,06,32,12.50
2009,07,20,06,33,12.60
2009,07,20,06,34,12.60
2009,07,20,06,35,12.60
2009,07,20,06,36,12.60
2009,07,20,06,37,12.60
2009,07,20,06,38,12.60
2009,07,20,06,39,12.60
2009,07,20,06,40,12.60
2009,07,20,06,41,12.60
2009,07,20,06,42,12.60
2009,07,20,06,43,12.60
2009,07,20,06,44,12.60
2009,07,20,06,45,12.60
2009,07,20,06,46,12.70
2009,07,20,06,47,12.70
2009,07,20,06,48,12.70
2009,07,20,06,49,12.70
2009,07,20,06,50,12.70
2009,07,20,06,51,12.80
2009,07,20,06,52,12.80
2009,07,20,06,53,12.80
2009,07,20,06,54,12.90
2009,07,20,06,55,12.90
2009,07,20,06,56,12.90
2009,07,20,06,57,13.00
2009,07,20,06,58,13.00
2009,07,20,06,59,13.00
2009,07,20,07,00,13.00
2009,07,20,07,01,13.00
2009,07,20,07,02,13.10
2009,07,20,07,03,13.10
2009,07,20,07,04,13.10
2009,07,20,07,05,13.10
2009,07,20,07,06,13.10
2009,07,20,07,07,13.20
2009,07,20,07,08,13.30
2009,07,20,07,09,13.30
2009,07,20,07,10,13.40
2009,07,20,07,11,13.40
2009,07,20,07,12,13.60
2009,07,20,07,13,13.60
2009,07,20,07,14,13.70
2009,07,20,07,15,13.80
2009,07,20,07,16,13.80
2009,07,20,07,17,13.90
2009,07,20,07,18,14.00
2009,07,20,07,19,14.10
2009,07,20,07,20,14.10
2009,07,20,07,21,14.10
2009,07,20,07,22,14.20
2009,07,20,07,23,14.20
2009,07,20,07,24,14.20
2009,07,20,07,25,14.30
2009,07,20,07,26,14.40
2009,07,20,07,27,14.40
2009,07,20,07,28,14.50
2009,07,20,07,29,14.50
2009,07,20,07,30,14.60
2009,07,20,07,31,14.60
2009,07,20,07,32,14.60
2009,07,20,07,33,14.70
2009,07,20,07,34,14.70
2009,07,20,07,35,14.80
2009,07,20,07,36,14.80
2009,07,20,07,37,14.90
2009,07,20,07,38,15.00
2009,07,20,07,39,15.00
2009,07,20,07,40,15.00
2009,07,20,07,41,15.00
2009,07,20,07,42,15.00
2009,07,20,07,43,15.10
2009,07,20,07,44,15.20
2009,07,20,07,45,15.20
2009,07,20,07,46,15.30
2009,07,20,07,47,15.40
2009,07,20,07,48,15.50
2009,07,20,07,49,15.60
2009,07,20,07,50,15.70
2009,07,20,07,51,15.70
2009,07,20,07,52,15.80
2009,07,20,07,53,15.90
2009,07,20,07,54,15.90
2009,07,20,07,55,16.00
2009,07,20,07,56,16.00
2009,07,20,07,57,16.00
2009,07,20,07,58,16.00
2009,07,20,07,59,16.10
2009,07,20,08,00,16.10
2009,07,20,08,01,16.20
2009,07,20,08,02,16.20
2009,07,20,08,03,16.20
2009,07,20,08,04,16.20
2009,07,20,08,05,16.20
2009,07,20,08,06,16.20
2009,07,20,08,07,16.20
2009,07,20,08,08,16.20
2009,07,20,08,09,16.30
2009,07,20,08,10,16.30
2009,07,20,08,11,16.40
2009,07,20,08,12,16.40
2009,07,20,08,13,16.40
2009,07,20,08,14,16.40
2009,07,20,08,15,16.40
2009,07,20,08,16,16.40
2009,07,20,08,17,16.40
2009,07,20,08,18,16.40
2009,07,20,08,19,16.40
2009,07,20,08,20,16.40
2009,07,20,08,21,16.50
2009,07,20,08,22,16.50
2009,07,20,08,23,16.60
2009,07,20,08,24,16.60
2009,07,20,08,25,16.60
2009,07,20,08,26,16.70
2009,07,20,08,27,16.70
2009,07,20,08,28,16.80
2009,07,20,08,29,16.90
2009,07,20,08,30,16.90
2009,07,20,08,31,17.10
2009,07,20,08,32,17.20
2009,07,20,08,33,17.20
2009,07,20,08,34,17.30
2009,07,20,08,35,17.30
2009,07,20,08,36,17.40
2009,07,20,08,37,17.40
2009,07,20,08,38,17.40
2009,07,20,08,39,17.50
2009,07,20,08,40,17.60
2009,07,20,08,41,17.60
2009,07,20,08,42,17.60
2009,07,20,08,43,17.60
2009,07,20,08,44,17.60
2009,07,20,08,45,17.60
2009,07,20,08,46,17.60
2009,07,20,08,47,17.60
2009,07,20,08,48,17.60
2009,07,20,08,49,17.60
2009,07,20,08,50,17.60
2009,07,20,08,51,17.50
2009,07,20,08,52,17.50
2009,07,20,08,53,17.50
2009,07,20,08,54,17.60
2009,07,20,08,55,17.60
2009,07,20,08,56,17.60
2009,07,20,08,57,17.60
2009,07,20,08,58,17.60
2009,07,20,08,59,17.60
2009,07,20,09,00,17.60
2009,07,20,09,01,17.60
2009,07,20,09,02,17.60
2009,07,20,09,03,17.60
2009,07,20,09,04,17.60
2009,07,20,09,05,17.60
2009,07,20,09,06,17.60
2009,07,20,09,07,17.70
2009,07,20,09,08,17.70
2009,07,20,09,09,17.70
2009,07,20,09,10,17.70
2009,07,20,09,11,17.70
2009,07,20,09,12,17.70
2009,07,20,09,13,17.80
2009,07,20,09,14,17.80
2009,07,20,09,15,17.80
2009,07,20,09,16,17.90
2009,07,20,09,17,18.00
2009,07,20,09,18,18.10
2009,07,20,09,19,18.20
2009,07,20,09,20,18.20
2009,07,20,09,21,18.30
2009,07,20,09,22,18.30
2009,07,20,09,24,18.50
2009,07,20,09,25,18.60
2009,07,20,09,26,18.60
2009,07,20,09,27,18.70
2009,07,20,09,28,18.70
2009,07,20,09,29,18.70
2009,07,20,09,30,18.80
2009,07,20,09,31,18.80
2009,07,20,09,32,18.90
2009,07,20,09,33,19.00
2009,07,20,09,34,19.10
2009,07,20,09,35,19.20
2009,07,20,09,36,19.20
2009,07,20,09,37,19.30
2009,07,20,09,38,19.30
2009,07,20,09,39,19.40
2009,07,20,09,40,19.50
2009,07,20,09,41,19.50
2009,07,20,09,42,19.60
2009,07,20,09,43,19.70
2009,07,20,09,44,19.70
2009,07,20,09,45,19.80
2009,07,20,09,46,19.90
2009,07,20,09,47,19.90
2009,07,20,09,48,19.90
2009,07,20,09,49,20.00
2009,07,20,09,50,20.10
2009,07,20,09,51,20.20
2009,07,20,09,52,20.20
2009,07,20,09,53,20.20
2009,07,20,09,54,20.20
2009,07,20,09,55,20.30
2009,07,20,09,56,20.30
2009,07,20,09,57,20.30
2009,07,20,09,58,20.30
2009,07,20,10,00,20.40
2009,07,20,10,01,20.40
2009,07,20,10,02,20.40
2009,07,20,10,03,20.40
2009,07,20,10,04,20.40
2009,07,20,10,05,20.50
2009,07,20,10,06,20.60
2009,07,20,10,07,20.60
2009,07,20,10,08,20.70
2009,07,20,10,09,20.70
2009,07,20,10,10,20.80
2009,07,20,10,11,20.90
2009,07,20,10,12,20.90
2009,07,20,10,13,21.10
2009,07,20,10,14,21.20
2009,07,20,10,15,21.30
2009,07,20,10,16,21.30
2009,07,20,10,17,21.40
2009,07,20,10,18,21.40
2009,07,20,10,19,21.50
2009,07,20,10,20,21.60
2009,07,20,10,21,21.70
2009,07,20,10,22,21.80
2009,07,20,10,24,21.80
2009,07,20,10,25,21.80
2009,07,20,10,26,21.80
2009,07,20,10,27,21.80
2009,07,20,10,28,21.90
2009,07,20,10,29,21.90
2009,07,20,10,30,22.00
2009,07,20,10,31,22.10
2009,07,20,10,32,22.20
2009,07,20,10,33,22.20
2009,07,20,10,34,22.30
2009,07,20,10,35,22.30
2009,07,20,10,36,22.40
2009,07,20,10,37,22.60
2009,07,20,10,38,22.60
2009,07,20,10,39,22.70
2009,07,20,10,40,22.80
2009,07,20,10,41,22.90
2009,07,20,10,42,22.90
2009,07,20,10,43,22.90
2009,07,20,10,44,23.00
2009,07,20,10,45,23.10
2009,07,20,10,46,23.10
2009,07,20,10,47,23.10
2009,07,20,10,48,23.10
2009,07,20,10,49,23.10
2009,07,20,10,50,23.10
2009,07,20,10,51,23.10
2009,07,20,10,52,23.10
2009,07,20,10,53,23.10
2009,07,20,10,54,23.20
2009,07,20,10,55,23.20
2009,07,20,10,56,23.20
2009,07,20,10,57,23.30
2009,07,20,10,58,23.30
2009,07,20,10,59,23.40
2009,07,20,11,00,23.40
2009,07,20,11,01,23.50
2009,07,20,11,02,23.60
2009,07,20,11,03,23.60
2009,07,20,11,04,23.60
2009,07,20,11,05,23.60
2009,07,20,11,06,23.70
2009,07,20,11,07,23.70
2009,07,20,11,08,23.70
2009,07,20,11,09,23.70
2009,07,20,11,10,23.70
2009,07,20,11,11,23.70
2009,07,20,11,12,23.70
2009,07,20,11,13,23.70
2009,07,20,11,14,23.80
2009,07,20,11,15,23.80
2009,07,20,11,16,23.80
2009,07,20,11,17,23.80
2009,07,20,11,18,23.90
2009,07,20,11,19,24.00
2009,07,20,11,20,24.00
2009,07,20,11,21,24.10
2009,07,20,11,22,24.20
2009,07,20,11,24,24.20
2009,07,20,11,25,24.30
2009,07,20,11,26,24.30
2009,07,20,11,27,24.30
2009,07,20,11,28,24.30
2009,07,20,11,29,24.40
2009,07,20,11,30,24.40
2009,07,20,11,31,24.40
2009,07,20,11,32,24.40
2009,07,20,11,33,24.40
2009,07,20,11,34,24.50
2009,07,20,11,35,24.60
2009,07,20,11,36,24.60
2009,07,20,11,37,24.60
2009,07,20,11,38,24.70
2009,07,20,11,39,24.70
2009,07,20,11,40,24.70
2009,07,20,11,41,24.80
2009,07,20,11,42,24.90
2009,07,20,11,43,25.00
2009,07,20,11,44,25.00
2009,07,20,11,45,25.10
2009,07,20,11,46,25.20
2009,07,20,11,47,25.20
2009,07,20,11,48,25.20
2009,07,20,11,49,25.30
2009,07,20,11,50,25.30
2009,07,20,11,51,25.40
2009,07,20,11,52,25.40
2009,07,20,11,53,25.40
2009,07,20,11,54,25.40
2009,07,20,11,55,25.40
2009,07,20,11,56,25.40
2009,07,20,11,57,25.40
2009,07,20,11,58,25.40
2009,07,20,12,00,25.40
2009,07,20,12,01,25.40
2009,07,20,12,02,25.40
2009,07,20,12,03,25.60
2009,07,20,12,04,25.60
2009,07,20,12,05,25.60
2009,07,20,12,06,25.60
2009,07,20,12,07,25.60
2009,07,20,12,08,25.60
2009,07,20,12,09,25.60
2009,07,20,12,10,25.60
2009,07,20,12,11,25.60
2009,07,20,12,12,25.60
2009,07,20,12,13,25.60
2009,07,20,12,14,25.70
2009,07,20,12,15,25.60
2009,07,20,12,16,25.60
2009,07,20,12,17,25.60
2009,07,20,12,18,25.60
2009,07,20,12,19,25.60
2009,07,20,12,20,25.50
2009,07,20,12,21,25.40
2009,07,20,12,22,25.40
2009,07,20,12,24,25.50
2009,07,20,12,25,25.60
2009,07,20,12,26,25.70
2009,07,20,12,27,25.70
2009,07,20,12,28,25.70
2009,07,20,12,29,25.70
2009,07,20,12,30,25.80
2009,07,20,12,31,25.90
2009,07,20,12,32,25.90
2009,07,20,12,33,25.90
2009,07,20,12,34,25.90
2009,07,20,12,35,25.90
2009,07,20,12,36,26.10
2009,07,20,12,37,26.10
2009,07,20,12,38,26.10
2009,07,20,12,39,26.10
2009,07,20,12,40,25.90
2009,07,20,12,41,25.90
2009,07,20,12,42,26.00
2009,07,20,12,43,26.00
2009,07,20,12,44,26.10
2009,07,20,12,45,26.10
2009,07,20,12,46,26.10
2009,07,20,12,47,26.20
2009,07,20,12,48,26.20
2009,07,20,12,49,26.30
2009,07,20,12,50,26.40
2009,07,20,12,51,26.40
2009,07,20,12,52,26.50
2009,07,20,12,53,26.60
2009,07,20,12,54,26.60
2009,07,20,12,55,26.70
2009,07,20,12,56,26.70
2009,07,20,12,57,26.80
2009,07,20,12,58,26.80
2009,07,20,12,59,26.80
2009,07,20,13,00,26.80
2009,07,20,13,01,26.80
2009,07,20,13,02,26.90
2009,07,20,13,03,26.90
2009,07,20,13,04,26.90
2009,07,20,13,05,26.90
2009,07,20,13,06,26.80
2009,07,20,13,07,26.80
2009,07,20,13,08,26.80
2009,07,20,13,09,26.70
2009,07,20,13,10,26.60
2009,07,20,13,11,26.60
2009,07,20,13,12,26.70
2009,07,20,13,13,26.70
2009,07,20,13,14,26.70
2009,07,20,13,15,26.60
2009,07,20,13,16,26.60
2009,07,20,13,17,26.50
2009,07,20,13,18,26.50
2009,07,20,13,19,26.50
2009,07,20,13,20,26.50
2009,07,20,13,21,26.50
2009,07,20,13,22,26.60
2009,07,20,13,24,26.70
2009,07,20,13,25,26.70
2009,07,20,13,26,26.70
2009,07,20,13,27,26.70
2009,07,20,13,28,26.70
2009,07,20,13,29,26.70
2009,07,20,13,30,26.70
2009,07,20,13,31,26.70
2009,07,20,13,32,26.70
2009,07,20,13,33,26.70
2009,07,20,13,34,26.80
2009,07,20,13,35,26.80
2009,07,20,13,36,26.80
2009,07,20,13,38,26.90
2009,07,20,13,39,26.90
2009,07,20,13,40,26.90
2009,07,20,13,45,26.90
2009,07,20,13,49,27.30
2009,07,20,13,50,27.40
2009,07,20,13,51,27.60
2009,07,20,13,52,27.70
2009,07,20,13,53,27.80
2009,07,20,13,54,27.80
2009,07,20,13,55,27.90
2009,07,20,13,56,28.00
2009,07,20,13,57,28.10
2009,07,20,13,58,28.20
2009,07,20,13,59,28.10
2009,07,20,14,00,28.10
2009,07,20,14,01,28.00
2009,07,20,14,02,28.00
2009,07,20,14,03,28.00
2009,07,20,14,04,28.00
2009,07,20,14,05,28.10
2009,07,20,14,06,28.10
2009,07,20,14,07,28.10
2009,07,20,14,08,28.20
2009,07,20,14,09,28.20
2009,07,20,14,10,28.20
2009,07,20,14,11,28.20
2009,07,20,14,12,28.20
2009,07,20,14,13,28.20
2009,07,20,14,14,28.20
2009,07,20,14,15,28.20
2009,07,20,14,16,28.20
2009,07,20,14,17,28.20
2009,07,20,14,18,28.20
2009,07,20,14,19,28.10
2009,07,20,14,20,28.10
2009,07,20,14,21,28.10
2009,07,20,14,22,28.10
2009,07,20,14,23,28.20
2009,07,20,14,24,28.20
2009,07,20,14,25,28.20
2009,07,20,14,26,28.20
2009,07,20,14,27,28.20
2009,07,20,14,28,28.10
2009,07,20,14,29,28.00
2009,07,20,14,30,28.00
2009,07,20,14,31,28.00
2009,07,20,14,32,28.00
2009,07,20,14,33,28.10
2009,07,20,14,34,28.20
2009,07,20,14,35,28.20
2009,07,20,14,36,28.30
2009,07,20,14,37,28.40
2009,07,20,14,38,28.40
2009,07,20,14,39,28.50
2009,07,20,14,40,28.60
2009,07,20,14,41,28.60
2009,07,20,14,42,28.60
2009,07,20,14,43,28.60
2009,07,20,14,44,28.60
2009,07,20,14,45,28.70
2009,07,20,14,46,28.70
2009,07,20,14,47,28.70
2009,07,20,14,48,28.70
2009,07,20,14,49,28.70
2009,07,20,14,50,28.70
2009,07,20,14,51,28.70
2009,07,20,14,52,28.80
2009,07,20,14,53,28.80
2009,07,20,14,54,28.90
2009,07,20,14,55,28.90
2009,07,20,14,56,28.90
2009,07,20,14,57,28.90
2009,07,20,14,58,28.90
2009,07,20,14,59,28.90
2009,07,20,15,00,28.90
2009,07,20,15,01,28.90
2009,07,20,15,02,29.00
2009,07,20,15,03,29.10
2009,07,20,15,04,29.00
2009,07,20,15,05,29.10
2009,07,20,15,06,29.10
2009,07,20,15,07,29.20
2009,07,20,15,08,29.20
2009,07,20,15,09,29.20
2009,07,20,15,10,29.20
2009,07,20,15,11,29.20
2009,07,20,15,12,29.20
2009,07,20,15,13,29.20
2009,07,20,15,14,29.20
2009,07,20,15,15,29.20
2009,07,20,15,16,29.20
2009,07,20,15,17,29.20
2009,07,20,15,18,29.20
2009,07,20,15,19,29.10
2009,07,20,15,20,28.90
2009,07,20,15,21,28.90
2009,07,20,15,22,28.90
2009,07,20,15,23,29.00
2009,07,20,15,24,29.00
2009,07,20,15,25,29.10
2009,07,20,15,26,29.10
2009,07,20,15,27,29.10
2009,07,20,15,28,29.10
2009,07,20,15,29,29.10
2009,07,20,15,30,29.10
2009,07,20,15,31,29.20
2009,07,20,15,32,29.20
2009,07,20,15,33,29.20
2009,07,20,15,34,29.20
2009,07,20,15,35,29.20
2009,07,20,15,36,29.30
2009,07,20,15,37,29.30
2009,07,20,15,38,29.30
2009,07,20,15,39,29.30
2009,07,20,15,40,29.30
2009,07,20,15,41,29.30
2009,07,20,15,42,29.30
2009,07,20,15,43,29.30
2009,07,20,15,44,29.30
2009,07,20,15,45,29.40
2009,07,20,15,46,29.30
2009,07,20,15,47,29.40
2009,07,20,15,48,29.40
2009,07,20,15,49,29.30
2009,07,20,15,50,29.30
2009,07,20,15,51,29.30
2009,07,20,15,52,29.30
2009,07,20,15,53,29.30
2009,07,20,15,54,29.40
2009,07,20,15,55,29.40
2009,07,20,15,56,29.40
2009,07,20,15,57,29.50
2009,07,20,15,58,29.50
2009,07,20,15,59,29.50
2009,07,20,16,00,29.50
2009,07,20,16,01,29.60
2009,07,20,16,02,29.60
2009,07,20,16,03,29.70
2009,07,20,16,04,29.70
2009,07,20,16,05,29.70
2009,07,20,16,06,29.70
2009,07,20,16,07,29.60
2009,07,20,16,08,29.70
2009,07,20,16,09,29.70
2009,07,20,16,10,29.80
2009,07,20,16,11,29.80
2009,07,20,16,12,29.80
2009,07,20,16,13,29.80
2009,07,20,16,14,29.80
2009,07,20,16,15,29.90
2009,07,20,16,16,29.90
2009,07,20,16,17,29.90
2009,07,20,16,18,30.00
2009,07,20,16,19,30.00
2009,07,20,16,20,30.10
2009,07,20,16,21,30.10
2009,07,20,16,22,30.10
2009,07,20,16,23,30.10
2009,07,20,16,24,30.10
2009,07,20,16,25,30.10
2009,07,20,16,26,30.10
2009,07,20,16,27,30.10
2009,07,20,16,28,30.20
2009,07,20,16,29,30.20
2009,07,20,16,30,30.30
2009,07,20,16,31,30.30
2009,07,20,16,32,30.40
2009,07,20,16,33,30.40
2009,07,20,16,34,30.30
2009,07,20,16,35,30.30
2009,07,20,16,36,30.30
2009,07,20,16,37,30.40
2009,07,20,16,38,30.40
2009,07,20,16,39,30.50
2009,07,20,16,40,30.50
2009,07,20,16,41,30.60
2009,07,20,16,42,30.60
2009,07,20,16,43,30.60
2009,07,20,16,44,30.70
2009,07,20,16,45,30.70
2009,07,20,16,46,30.70
2009,07,20,16,47,30.70
2009,07,20,16,48,30.70
2009,07,20,16,49,30.70
2009,07,20,16,50,30.80
2009,07,20,16,51,30.80
2009,07,20,16,52,30.70
2009,07,20,16,53,30.70
2009,07,20,16,54,30.80
2009,07,20,16,55,30.80
2009,07,20,16,56,30.80
2009,07,20,16,57,30.80
2009,07,20,16,58,30.80
2009,07,20,16,59,30.70
2009,07,20,17,00,30.70
2009,07,20,17,01,30.70
2009,07,20,17,02,30.70
2009,07,20,17,03,30.70
2009,07,20,17,04,30.60
2009,07,20,17,05,30.60
2009,07,20,17,06,30.60
2009,07,20,17,07,30.60
2009,07,20,17,08,30.60
2009,07,20,17,09,30.50
2009,07,20,17,10,30.40
2009,07,20,17,11,30.40
2009,07,20,17,12,30.30
2009,07,20,17,13,30.20
2009,07,20,17,14,30.10
2009,07,20,17,15,30.10
2009,07,20,17,16,30.00
2009,07,20,17,17,29.90
2009,07,20,17,18,29.90
2009,07,20,17,19,29.90
2009,07,20,17,20,29.80
2009,07,20,17,21,29.80
2009,07,20,17,22,29.80
2009,07,20,17,23,29.80
2009,07,20,17,24,29.90
2009,07,20,17,25,29.80
2009,07,20,17,26,29.80
2009,07,20,17,27,29.90
2009,07,20,17,28,29.90
2009,07,20,17,29,29.80
2009,07,20,17,30,29.80
2009,07,20,17,31,29.80
2009,07,20,17,32,29.80
2009,07,20,17,33,29.80
2009,07,20,17,34,29.80
2009,07,20,17,35,29.80
2009,07,20,17,36,29.80
2009,07,20,17,37,29.80
2009,07,20,17,38,29.80
2009,07,20,17,39,29.80
2009,07,20,17,40,29.80